WD6AWP Weather Reports


Display with metric or nautical units.
time (UTC)temp
F
wind
direction
speed
MPH
gust
MPH
rain 1hr
in
rain 24hr
in
rain mn
in
humidity
%
barometer
mb
20260904190049 78 244 4.0 10.0 0.00 0.00 0.00 71 1013.7
20260904184548 78 208 5.0 10.0 0.00 0.00 0.00 69 1013.9
20260904183047 78 228 4.0 10.0 0.00 0.00 0.00 70 1013.9
20260904181546 77 180 6.0 10.0 0.00 0.00 0.00 70 1014.0
20260904180047 77 184 6.0 10.0 0.00 0.00 0.00 69 1013.9
20260904174547 77 210 4.0 10.0 0.00 0.00 0.00 71 1014.1
20260904173056 77 175 6.0 10.0 0.00 0.00 0.00 70 1014.0
20260904171543 76 194 5.0 9.0 0.00 0.00 0.00 71 1013.9
20260904170039 76 239 4.0 9.0 0.00 0.00 0.00 73 1013.8
20260904164537 76 206 3.0 6.0 0.00 0.00 0.00 71 1013.5
20260904163034 76 205 2.0 6.0 0.00 0.00 0.00 72 1013.4
20260904161535 76 157 1.0 7.0 0.00 0.00 0.00 71 1013.3
20260904160032 76 150 0.0 3.0 0.00 0.00 0.00 72 1013.2
20260904154525 75 155 0.0 4.0 0.00 0.00 0.00 74 1013.1
20260904153021 73 145 1.0 6.0 0.00 0.00 0.00 76 1013.2
20260904151518 73 117 0.0 4.0 0.00 0.00 0.00 77 1013.1
20260904150026 70 110 1.0 4.0 0.00 0.00 0.00 81 1013.0
20260904144510 68 105 2.0 6.0 0.00 0.00 0.00 85 1013.0
20260904143006 66 107 1.0 6.0 0.00 0.00 0.00 90 1013.0
20260904141502 65 98 1.0 4.0 0.00 0.00 0.00 90 1012.8
20260904140105 65 269 0.0 3.0 0.00 0.00 0.00 91 1012.6
20260904134613 65 269 0.0 0.0 0.00 0.00 0.00 91 1012.5
20260904133058 64 269 0.0 0.0 0.00 0.00 0.00 91 1012.4
20260904131558 65 269 0.0 0.0 0.00 0.00 0.00 91 1012.4
20260904130056 65 269 0.0 0.0 0.00 0.00 0.00 91 1012.3
20260904124555 65 269 0.0 0.0 0.00 0.00 0.00 91 1012.3
20260904123054 65 269 0.0 0.0 0.00 0.00 0.00 91 1012.2
20260904121554 65 269 0.0 0.0 0.00 0.00 0.00 91 1012.1
20260904120104 65 269 0.0 0.0 0.00 0.00 0.00 91 1012.0
20260904114554 65 269 0.0 0.0 0.00 0.00 0.00 91 1012.1
20260904113052 65 269 0.0 0.0 0.00 0.00 0.00 91 1012.1
20260904111551 65 269 0.0 0.0 0.00 0.00 0.00 91 1012.0
20260904110051 65 269 0.0 3.0 0.00 0.00 0.00 92 1012.1
20260904104550 65 269 0.0 2.0 0.00 0.00 0.00 91 1012.1
20260904103048 65 269 0.0 0.0 0.00 0.00 0.00 91 1011.9
20260904101547 65 269 0.0 0.0 0.00 0.00 0.00 91 1011.9
20260904100050 65 269 0.0 0.0 0.00 0.00 0.00 91 1011.9
20260904094551 65 269 0.0 0.0 0.00 0.00 0.00 91 1012.0
20260904093047 65 269 0.0 4.0 0.00 0.00 0.00 92 1012.0
20260904091544 65 269 0.0 0.0 0.00 0.00 0.00 92 1011.9
20260904090044 65 269 0.0 0.0 0.00 0.00 0.00 92 1012.0
20260904084543 65 269 0.0 0.0 0.00 0.00 0.00 92 1012.0
20260904083046 65 269 0.0 0.0 0.00 0.00 0.00 92 1012.2
20260904081541 65 269 0.0 0.0 0.00 0.00 0.00 91 1012.2
20260904080041 65 269 0.0 0.0 0.00 0.00 0.00 91 1012.2
20260904074539 65 269 0.0 0.0 0.00 0.00 0.00 90 1012.2
20260904073038 65 269 0.0 0.0 0.00 0.00 0.00 90 1012.2
20260904071536 65 269 0.0 0.0 0.00 0.00 0.00 89 1012.1
20260904070034 66 269 0.0 0.0 0.00 0.00 0.00 89 1012.0
20260904064535 66 269 0.0 0.0 0.00 0.00 0.00 87 1012.1
20260904063036 66 269 0.0 0.0 0.00 0.00 0.00 86 1012.0
20260904061532 67 269 0.0 0.0 0.00 0.00 0.00 86 1012.0
20260904060032 68 269 0.0 0.0 0.00 0.00 0.00 85 1012.0
20260904054531 69 269 0.0 0.0 0.00 0.00 0.00 86 1011.9
20260904053031 69 269 0.0 4.0 0.00 0.00 0.00 86 1012.0
20260904051529 69 269 3.0 6.0 0.00 0.00 0.00 86 1012.2
20260904050030 69 269 0.0 0.0 0.00 0.00 0.00 86 1012.2
20260904044532 69 269 0.0 0.0 0.00 0.00 0.00 86 1012.0
20260904043029 69 269 0.0 0.0 0.00 0.00 0.00 85 1011.9
20260904041528 69 269 0.0 0.0 0.00 0.00 0.00 85 1011.8
20260904040028 70 269 0.0 4.0 0.00 0.00 0.00 85 1011.8
20260904034534 70 272 3.0 7.0 0.00 0.00 0.00 86 1011.6
20260904033027 70 285 0.0 7.0 0.00 0.00 0.00 85 1011.5
20260904031526 70 275 4.0 9.0 0.00 0.00 0.00 84 1011.3
20260904030026 70 275 6.0 11.0 0.00 0.00 0.00 84 1011.2
20260904024526 70 282 6.0 11.0 0.00 0.00 0.00 83 1011.2
20260904023025 70 255 6.0 12.0 0.00 0.00 0.00 83 1011.3
20260904021527 71 284 7.0 13.0 0.00 0.00 0.00 82 1011.3
20260904020020 71 274 6.0 12.0 0.00 0.00 0.00 81 1011.4
20260904014518 72 263 6.0 13.0 0.00 0.00 0.00 80 1011.4
20260904013016 72 236 7.0 13.0 0.00 0.00 0.00 79 1011.5
20260904011518 73 259 5.0 14.0 0.00 0.00 0.00 78 1011.6
20260904010016 74 259 7.0 12.0 0.00 0.00 0.00 76 1011.5
20260904004510 75 263 6.0 12.0 0.00 0.00 0.00 75 1011.5
20260904003012 76 259 7.0 14.0 0.00 0.00 0.00 75 1011.6
20260904001506 76 239 7.0 16.0 0.00 0.00 0.00 75 1011.5
20260904000006 76 284 8.0 14.0 0.00 0.00 0.00 75 1011.6
20260903234504 77 246 7.0 14.0 0.00 0.00 0.00 74 1011.7
20260903233002 77 272 6.0 12.0 0.00 0.00 0.00 74 1011.9
20260903231502 78 229 6.0 12.0 0.00 0.00 0.00 74 1011.9
20260903224615 79 265 8.0 14.0 0.00 0.00 0.00 72 1012.1
20260903223058 79 236 6.0 11.0 0.00 0.00 0.00 72 1012.2
20260903221556 79 248 5.0 13.0 0.00 0.00 0.00 72 1012.4
20260903220055 79 236 4.0 11.0 0.00 0.00 0.00 71 1012.4
20260903214607 79 200 4.0 13.0 0.00 0.00 0.00 72 1012.6
20260903213100 79 218 6.0 14.0 0.00 0.00 0.00 72 1012.7
20260903211547 78 238 5.0 13.0 0.00 0.00 0.00 74 1012.7
20260903210118 79 238 5.0 14.0 0.00 0.00 0.00 74 1012.6
20260903204549 78 259 7.0 13.0 0.00 0.00 0.00 73 1012.8
20260903203103 78 196 5.0 13.0 0.00 0.00 0.00 74 1013.0
20260903201544 79 194 4.0 10.0 0.00 0.00 0.00 73 1013.1
20260903200045 78 236 6.0 13.0 0.00 0.00 0.00 74 1013.3
20260903194537 78 196 7.0 10.0 0.00 0.00 0.00 73 1013.3
20260903193035 78 289 4.0 12.0 0.00 0.00 0.00 75 1013.5
20260903191536 78 203 4.0 10.0 0.00 0.00 0.00 74 1013.7